Time,TemperatureF,DewpointF,PressureIn,WindDirection,WindDirectionDegrees,WindSpeedMPH,WindSpeedGustMPH,Humidity,HourlyPrecipIn,Conditions,Clouds,dailyrainin,SoftwareType,DateUTC
2013-10-13 00:00:00,60.0,0.0,29.83,North,353,3.0,3.0,23,-99.99,,,-99.99,,2013-10-13 07:00:00,
2013-10-13 00:08:00,59.0,0.0,29.83,NNE,18,5.0,8.0,23,-99.99,,,-99.99,,2013-10-13 07:08:00,
2013-10-13 00:16:00,57.0,0.0,29.83,NNE,13,2.0,8.0,26,-99.99,,,-99.99,,2013-10-13 07:16:00,
2013-10-13 00:24:00,58.0,0.0,29.83,North,349,1.0,5.0,25,-99.99,,,-99.99,,2013-10-13 07:24:00,
2013-10-13 00:32:00,58.0,0.0,29.83,WNW,296,2.0,2.0,23,-99.99,,,-99.99,,2013-10-13 07:32:00,
2013-10-13 00:40:00,59.0,0.0,29.83,NW,320,6.0,7.0,23,-99.99,,,-99.99,,2013-10-13 07:40:00,
2013-10-13 00:48:00,59.0,0.0,29.82,North,353,5.0,7.0,23,-99.99,,,-99.99,,2013-10-13 07:48:00,
2013-10-13 00:56:00,60.0,0.0,29.83,ENE,68,3.0,7.0,21,-99.99,,,-99.99,,2013-10-13 07:56:00,
2013-10-13 01:04:00,59.0,0.0,29.83,WNW,303,1.0,6.0,23,-99.99,,,-99.99,,2013-10-13 08:04:00,
2013-10-13 01:12:00,59.0,0.0,29.83,NNW,347,5.0,6.0,22,-99.99,,,-99.99,,2013-10-13 08:12:00,
2013-10-13 01:20:00,58.0,0.0,29.83,NNW,333,3.0,6.0,22,-99.99,,,-99.99,,2013-10-13 08:20:00,
2013-10-13 01:28:00,57.0,0.0,29.83,North,2,2.0,6.0,23,-99.99,,,-99.99,,2013-10-13 08:28:00,
2013-10-13 01:36:00,58.0,0.0,29.83,North,3,1.0,5.0,23,-99.99,,,-99.99,,2013-10-13 08:36:00,
2013-10-13 01:44:00,59.0,0.0,29.83,NW,315,5.0,6.0,22,-99.99,,,-99.99,,2013-10-13 08:44:00,
2013-10-13 01:52:00,57.0,0.0,29.83,NW,322,7.0,7.0,24,-99.99,,,-99.99,,2013-10-13 08:52:00,
2013-10-13 02:00:00,57.0,0.0,29.83,North,349,8.0,8.0,23,-99.99,,,-99.99,,2013-10-13 09:00:00,
2013-10-13 02:08:00,57.0,0.0,29.83,NW,324,6.0,8.0,23,-99.99,,,-99.99,,2013-10-13 09:08:00,
2013-10-13 02:16:00,56.0,0.0,29.83,NNW,345,5.0,7.0,24,-99.99,,,-99.99,,2013-10-13 09:16:00,
2013-10-13 02:24:00,56.0,0.0,29.83,North,5,2.0,9.0,25,-99.99,,,-99.99,,2013-10-13 09:24:00,
2013-10-13 02:32:00,55.0,0.0,29.83,NE,54,3.0,9.0,25,-99.99,,,-99.99,,2013-10-13 09:32:00,
2013-10-13 02:40:00,55.0,0.0,29.83,North,357,2.0,7.0,26,-99.99,,,-99.99,,2013-10-13 09:40:00,
2013-10-13 02:48:00,55.0,0.0,29.82,NNE,21,2.0,6.0,26,-99.99,,,-99.99,,2013-10-13 09:48:00,
2013-10-13 02:56:00,56.0,0.0,29.83,North,5,2.0,7.0,27,-99.99,,,-99.99,,2013-10-13 09:56:00,
2013-10-13 03:04:00,55.0,0.0,29.83,NW,305,6.0,9.0,26,-99.99,,,-99.99,,2013-10-13 10:04:00,
2013-10-13 03:12:00,56.0,0.0,29.83,WNW,302,1.0,10.0,29,-99.99,,,-99.99,,2013-10-13 10:12:00,
2013-10-13 03:20:00,57.0,0.0,29.83,NNE,28,2.0,3.0,28,-99.99,,,-99.99,,2013-10-13 10:20:00,
2013-10-13 03:28:00,57.0,0.0,29.83,SW,225,6.0,6.0,26,-99.99,,,-99.99,,2013-10-13 10:28:00,
2013-10-13 03:36:00,56.0,0.0,29.82,SW,233,1.0,7.0,27,-99.99,,,-99.99,,2013-10-13 10:36:00,
2013-10-13 03:44:00,55.0,0.0,29.83,North,355,3.0,5.0,26,-99.99,,,-99.99,,2013-10-13 10:44:00,
2013-10-13 03:52:00,54.0,0.0,29.83,NNE,23,0.0,6.0,27,-99.99,,,-99.99,,2013-10-13 10:52:00,
2013-10-13 04:00:00,55.0,0.0,29.83,North,349,6.0,6.0,31,-99.99,,,-99.99,,2013-10-13 11:00:00,
2013-10-13 04:08:00,56.0,0.0,29.83,NW,320,7.0,7.0,29,-99.99,,,-99.99,,2013-10-13 11:08:00,
2013-10-13 04:16:00,57.0,0.0,29.83,NNW,336,6.0,7.0,30,-99.99,,,-99.99,,2013-10-13 11:16:00,
2013-10-13 04:24:00,56.0,0.0,29.83,North,355,2.0,6.0,28,-99.99,,,-99.99,,2013-10-13 11:24:00,
2013-10-13 04:32:00,56.0,0.0,29.83,NE,54,5.0,5.0,28,-99.99,,,-99.99,,2013-10-13 11:32:00,
2013-10-13 04:40:00,54.0,0.0,29.83,ESE,117,3.0,5.0,29,-99.99,,,-99.99,,2013-10-13 11:40:00,
2013-10-13 04:48:00,53.0,0.0,29.84,NW,323,2.0,8.0,30,-99.99,,,-99.99,,2013-10-13 11:48:00,
2013-10-13 04:56:00,54.0,0.0,29.84,NE,41,2.0,8.0,30,-99.99,,,-99.99,,2013-10-13 11:56:00,
2013-10-13 05:04:00,54.0,0.0,29.84,North,6,2.0,6.0,30,-99.99,,,-99.99,,2013-10-13 12:04:00,
2013-10-13 05:12:00,54.0,0.0,29.84,NE,49,2.0,6.0,31,-99.99,,,-99.99,,2013-10-13 12:12:00,
2013-10-13 05:20:00,54.0,0.0,29.84,NE,42,5.0,5.0,32,-99.99,,,-99.99,,2013-10-13 12:20:00,
2013-10-13 05:28:00,54.0,0.0,29.84,NE,37,2.0,5.0,33,-99.99,,,-99.99,,2013-10-13 12:28:00,
2013-10-13 05:36:00,53.0,0.0,29.85,NNE,31,2.0,6.0,36,-99.99,,,-99.99,,2013-10-13 12:36:00,
2013-10-13 05:44:00,53.0,0.0,29.85,NE,40,5.0,7.0,38,-99.99,,,-99.99,,2013-10-13 12:44:00,
2013-10-13 05:52:00,54.0,0.0,29.85,ENE,62,3.0,7.0,39,-99.99,,,-99.99,,2013-10-13 12:52:00,
2013-10-13 06:00:00,54.0,0.0,29.85,ENE,75,5.0,7.0,40,-99.99,,,-99.99,,2013-10-13 13:00:00,
2013-10-13 06:08:00,54.0,0.0,29.85,ENE,69,5.0,7.0,43,-99.99,,,-99.99,,2013-10-13 13:08:00,
2013-10-13 06:16:00,53.0,0.0,29.85,North,10,2.0,5.0,42,-99.99,,,-99.99,,2013-10-13 13:16:00,
2013-10-13 06:24:00,53.0,0.0,29.86,NNE,20,2.0,7.0,40,-99.99,,,-99.99,,2013-10-13 13:24:00,
2013-10-13 06:32:00,52.0,0.0,29.86,North,350,2.0,9.0,40,-99.99,,,-99.99,,2013-10-13 13:32:00,
2013-10-13 06:40:00,52.0,0.0,29.86,North,354,2.0,8.0,40,-99.99,,,-99.99,,2013-10-13 13:40:00,
2013-10-13 06:48:00,53.0,0.0,29.86,NE,43,7.0,8.0,40,-99.99,,,-99.99,,2013-10-13 13:48:00,
2013-10-13 06:56:00,53.0,0.0,29.87,NE,34,2.0,7.0,39,-99.99,,,-99.99,,2013-10-13 13:56:00,
2013-10-13 07:04:00,53.0,0.0,29.87,North,4,2.0,7.0,42,-99.99,,,-99.99,,2013-10-13 14:04:00,
2013-10-13 07:12:00,53.0,0.0,29.87,North,353,1.0,6.0,40,-99.99,,,-99.99,,2013-10-13 14:12:00,
2013-10-13 07:20:00,53.0,0.0,29.87,North,2,2.0,9.0,38,-99.99,,,-99.99,,2013-10-13 14:20:00,
2013-10-13 07:28:00,54.0,0.0,29.87,North,353,2.0,9.0,41,-99.99,,,-99.99,,2013-10-13 14:28:00,
2013-10-13 07:36:00,54.0,0.0,29.87,ENE,68,2.0,5.0,39,-99.99,,,-99.99,,2013-10-13 14:36:00,
2013-10-13 07:44:00,54.0,0.0,29.88,ENE,61,7.0,9.0,41,-99.99,,,-99.99,,2013-10-13 14:44:00,
2013-10-13 07:52:00,55.0,0.0,29.88,East,85,2.0,9.0,41,-99.99,,,-99.99,,2013-10-13 14:52:00,
2013-10-13 08:00:00,56.0,0.0,29.89,East,80,2.0,9.0,40,-99.99,,,-99.99,,2013-10-13 15:00:00,
2013-10-13 08:08:00,58.0,0.0,29.89,NNW,345,2.0,6.0,36,-99.99,,,-99.99,,2013-10-13 15:08:00,
2013-10-13 08:16:00,59.0,0.0,29.89,North,1,0.0,6.0,35,-99.99,,,-99.99,,2013-10-13 15:16:00,
2013-10-13 08:24:00,59.0,0.0,29.90,West,261,0.0,5.0,34,-99.99,,,-99.99,,2013-10-13 15:24:00,
2013-10-13 08:32:00,60.0,0.0,29.90,South,180,5.0,5.0,33,-99.99,,,-99.99,,2013-10-13 15:32:00,
2013-10-13 08:40:00,61.0,0.0,29.89,SSW,197,3.0,8.0,33,-99.99,,,-99.99,,2013-10-13 15:40:00,
2013-10-13 08:48:00,61.0,0.0,29.89,SE,129,6.0,7.0,32,-99.99,,,-99.99,,2013-10-13 15:48:00,
2013-10-13 08:56:00,62.0,0.0,29.89,West,262,2.0,7.0,30,-99.99,,,-99.99,,2013-10-13 15:56:00,
2013-10-13 09:04:00,63.0,0.0,29.89,WNW,295,6.0,8.0,31,-99.99,,,-99.99,,2013-10-13 16:04:00,
2013-10-13 09:12:00,64.0,0.0,29.90,NW,305,5.0,10.0,30,-99.99,,,-99.99,,2013-10-13 16:12:00,
2013-10-13 09:20:00,64.0,0.0,29.90,North,2,2.0,14.0,30,-99.99,,,-99.99,,2013-10-13 16:20:00,
2013-10-13 09:28:00,64.0,0.0,29.90,NE,48,8.0,9.0,29,-99.99,,,-99.99,,2013-10-13 16:28:00,
2013-10-13 09:36:00,66.0,0.0,29.91,ENE,72,5.0,10.0,28,-99.99,,,-99.99,,2013-10-13 16:36:00,
2013-10-13 09:44:00,67.0,0.0,29.90,ENE,59,6.0,9.0,28,-99.99,,,-99.99,,2013-10-13 16:44:00,
2013-10-13 09:52:00,67.0,0.0,29.90,SE,146,3.0,9.0,26,-99.99,,,-99.99,,2013-10-13 16:52:00,
2013-10-13 10:00:00,67.0,0.0,29.91,South,170,5.0,8.0,27,-99.99,,,-99.99,,2013-10-13 17:00:00,
2013-10-13 10:08:00,66.0,0.0,29.90,SSE,158,7.0,18.0,26,-99.99,,,-99.99,,2013-10-13 17:08:00,
2013-10-13 10:16:00,67.0,0.0,29.90,SSE,157,3.0,10.0,28,-99.99,,,-99.99,,2013-10-13 17:16:00,
2013-10-13 10:24:00,68.0,0.0,29.90,SSE,158,3.0,9.0,26,-99.99,,,-99.99,,2013-10-13 17:24:00,
2013-10-13 10:32:00,68.0,0.0,29.90,SSE,167,7.0,12.0,26,-99.99,,,-99.99,,2013-10-13 17:32:00,
2013-10-13 10:40:00,68.0,0.0,29.90,SSE,156,14.0,16.0,28,-99.99,,,-99.99,,2013-10-13 17:40:00,
2013-10-13 10:48:00,68.0,0.0,29.89,SSE,162,9.0,15.0,24,-99.99,,,-99.99,,2013-10-13 17:48:00,
2013-10-13 10:56:00,69.0,0.0,29.90,SE,137,13.0,14.0,25,-99.99,,,-99.99,,2013-10-13 17:56:00,
2013-10-13 11:04:00,70.0,0.0,29.90,SE,126,12.0,14.0,25,-99.99,,,-99.99,,2013-10-13 18:04:00,
2013-10-13 11:12:00,70.0,0.0,29.90,SE,138,9.0,18.0,24,-99.99,,,-99.99,,2013-10-13 18:12:00,
2013-10-13 11:20:00,71.0,0.0,29.90,ESE,116,8.0,16.0,25,-99.99,,,-99.99,,2013-10-13 18:20:00,
2013-10-13 11:28:00,71.0,0.0,29.89,SSE,164,15.0,18.0,24,-99.99,,,-99.99,,2013-10-13 18:28:00,
2013-10-13 11:36:00,71.0,0.0,29.90,SSE,159,7.0,18.0,22,-99.99,,,-99.99,,2013-10-13 18:36:00,
2013-10-13 11:44:00,72.0,0.0,29.90,SE,125,12.0,15.0,25,-99.99,,,-99.99,,2013-10-13 18:44:00,
2013-10-13 11:52:00,72.0,0.0,29.90,ESE,120,5.0,16.0,24,-99.99,,,-99.99,,2013-10-13 18:52:00,
2013-10-13 12:00:00,73.0,0.0,29.90,SE,129,10.0,16.0,24,-99.99,,,-99.99,,2013-10-13 19:00:00,
2013-10-13 12:08:00,72.0,0.0,29.90,ESE,118,7.0,21.0,22,-99.99,,,-99.99,,2013-10-13 19:08:00,
2013-10-13 12:16:00,73.0,0.0,29.90,ESE,118,7.0,14.0,21,-99.99,,,-99.99,,2013-10-13 19:16:00,
2013-10-13 12:24:00,74.0,0.0,29.89,SSE,149,7.0,16.0,21,-99.99,,,-99.99,,2013-10-13 19:24:00,
2013-10-13 12:32:00,74.0,0.0,29.90,ESE,120,3.0,16.0,19,-99.99,,,-99.99,,2013-10-13 19:32:00,
2013-10-13 12:40:00,75.0,0.0,29.89,SE,129,9.0,12.0,18,-99.99,,,-99.99,,2013-10-13 19:40:00,
2013-10-13 12:48:00,75.0,0.0,29.90,ENE,61,3.0,12.0,17,-99.99,,,-99.99,,2013-10-13 19:48:00,
2013-10-13 12:56:00,76.0,0.0,29.89,SSE,155,5.0,9.0,18,-99.99,,,-99.99,,2013-10-13 19:56:00,
2013-10-13 13:04:00,73.0,0.0,29.89,North,1,2.0,10.0,18,-99.99,,,-99.99,,2013-10-13 20:04:00,
2013-10-13 13:12:00,74.0,0.0,29.89,NW,304,0.0,14.0,19,-99.99,,,-99.99,,2013-10-13 20:12:00,
2013-10-13 13:20:00,75.0,0.0,29.89,East,84,7.0,14.0,21,-99.99,,,-99.99,,2013-10-13 20:20:00,
2013-10-13 13:28:00,76.0,0.0,29.89,NNE,23,6.0,15.0,18,-99.99,,,-99.99,,2013-10-13 20:28:00,
2013-10-13 13:36:00,73.0,0.0,29.89,West,281,5.0,13.0,19,-99.99,,,-99.99,,2013-10-13 20:36:00,
2013-10-13 13:44:00,76.0,0.0,29.89,ENE,69,7.0,13.0,19,-99.99,,,-99.99,,2013-10-13 20:44:00,
2013-10-13 13:52:00,76.0,0.0,29.89,East,91,5.0,12.0,18,-99.99,,,-99.99,,2013-10-13 20:52:00,
2013-10-13 14:00:00,75.0,0.0,29.89,ESE,122,9.0,14.0,21,-99.99,,,-99.99,,2013-10-13 21:00:00,
2013-10-13 14:08:00,76.0,0.0,29.89,ESE,102,8.0,16.0,18,-99.99,,,-99.99,,2013-10-13 21:08:00,
2013-10-13 14:16:00,76.0,0.0,29.89,ENE,65,9.0,16.0,20,-99.99,,,-99.99,,2013-10-13 21:16:00,
2013-10-13 14:24:00,76.0,0.0,29.89,SSE,168,2.0,21.0,19,-99.99,,,-99.99,,2013-10-13 21:24:00,
2013-10-13 14:32:00,77.0,0.0,29.89,SE,125,8.0,21.0,21,-99.99,,,-99.99,,2013-10-13 21:32:00,
2013-10-13 14:40:00,76.0,0.0,29.89,South,186,7.0,16.0,19,-99.99,,,-99.99,,2013-10-13 21:40:00,
2013-10-13 14:48:00,77.0,0.0,29.89,SE,142,9.0,18.0,19,-99.99,,,-99.99,,2013-10-13 21:48:00,
2013-10-13 14:56:00,74.0,0.0,29.89,SSE,162,9.0,21.0,20,-99.99,,,-99.99,,2013-10-13 21:56:00,
2013-10-13 15:04:00,76.0,0.0,29.89,South,171,15.0,18.0,20,-99.99,,,-99.99,,2013-10-13 22:04:00,
2013-10-13 15:12:00,75.0,0.0,29.89,WSW,247,10.0,18.0,20,-99.99,,,-99.99,,2013-10-13 22:12:00,
2013-10-13 15:20:00,76.0,0.0,29.90,SW,221,2.0,18.0,19,-99.99,,,-99.99,,2013-10-13 22:20:00,
2013-10-13 15:28:00,74.0,0.0,29.90,SSE,161,9.0,12.0,19,-99.99,,,-99.99,,2013-10-13 22:28:00,
2013-10-13 15:36:00,75.0,0.0,29.90,SSE,159,9.0,21.0,19,-99.99,,,-99.99,,2013-10-13 22:36:00,
2013-10-13 15:44:00,74.0,0.0,29.90,ESE,118,5.0,15.0,20,-99.99,,,-99.99,,2013-10-13 22:44:00,
2013-10-13 15:52:00,76.0,0.0,29.90,SE,124,7.0,12.0,22,-99.99,,,-99.99,,2013-10-13 22:52:00,
2013-10-13 16:00:00,74.0,0.0,29.91,SSE,154,8.0,15.0,21,-99.99,,,-99.99,,2013-10-13 23:00:00,
2013-10-13 16:08:00,74.0,0.0,29.91,ESE,111,6.0,15.0,21,-99.99,,,-99.99,,2013-10-13 23:08:00,
2013-10-13 16:16:00,73.0,0.0,29.91,SSE,147,7.0,16.0,21,-99.99,,,-99.99,,2013-10-13 23:16:00,
2013-10-13 16:24:00,74.0,0.0,29.91,ESE,123,7.0,15.0,22,-99.99,,,-99.99,,2013-10-13 23:24:00,
2013-10-13 16:32:00,73.0,0.0,29.92,ESE,120,9.0,12.0,22,-99.99,,,-99.99,,2013-10-13 23:32:00,
2013-10-13 16:40:00,74.0,0.0,29.91,SSE,156,10.0,13.0,20,-99.99,,,-99.99,,2013-10-13 23:40:00,
2013-10-13 16:48:00,74.0,0.0,29.92,SSE,154,6.0,13.0,20,-99.99,,,-99.99,,2013-10-13 23:48:00,
2013-10-13 16:56:00,75.0,0.0,29.92,South,183,8.0,9.0,20,-99.99,,,-99.99,,2013-10-13 23:56:00,
2013-10-13 17:04:00,75.0,0.0,29.92,SE,131,9.0,12.0,20,-99.99,,,-99.99,,2013-10-14 00:04:00,
2013-10-13 17:12:00,75.0,0.0,29.93,SSE,152,5.0,12.0,20,-99.99,,,-99.99,,2013-10-14 00:12:00,
2013-10-13 17:20:00,74.0,0.0,29.93,ESE,120,7.0,10.0,21,-99.99,,,-99.99,,2013-10-14 00:20:00,
2013-10-13 17:28:00,74.0,0.0,29.93,SE,134,7.0,12.0,20,-99.99,,,-99.99,,2013-10-14 00:28:00,
2013-10-13 17:36:00,74.0,0.0,29.93,SE,144,7.0,12.0,20,-99.99,,,-99.99,,2013-10-14 00:36:00,
2013-10-13 17:44:00,73.0,0.0,29.94,South,169,8.0,10.0,21,-99.99,,,-99.99,,2013-10-14 00:44:00,
2013-10-13 17:52:00,72.0,0.0,29.94,SSE,157,7.0,13.0,22,-99.99,,,-99.99,,2013-10-14 00:52:00,
2013-10-13 18:00:00,71.0,0.0,29.94,SSE,157,9.0,10.0,22,-99.99,,,-99.99,,2013-10-14 01:00:00,
2013-10-13 18:08:00,70.0,0.0,29.94,SSE,164,9.0,12.0,23,-99.99,,,-99.99,,2013-10-14 01:08:00,
2013-10-13 18:16:00,69.0,0.0,29.94,SSE,167,6.0,10.0,23,-99.99,,,-99.99,,2013-10-14 01:16:00,
2013-10-13 18:24:00,68.0,0.0,29.95,South,181,6.0,8.0,24,-99.99,,,-99.99,,2013-10-14 01:24:00,
2013-10-13 18:32:00,67.0,0.0,29.95,South,189,5.0,7.0,24,-99.99,,,-99.99,,2013-10-14 01:32:00,
2013-10-13 18:40:00,66.0,0.0,29.96,SSW,205,5.0,6.0,24,-99.99,,,-99.99,,2013-10-14 01:40:00,
2013-10-13 18:48:00,66.0,0.0,29.96,SSW,202,6.0,6.0,26,-99.99,,,-99.99,,2013-10-14 01:48:00,
2013-10-13 18:56:00,66.0,0.0,29.96,SSW,201,6.0,7.0,25,-99.99,,,-99.99,,2013-10-14 01:56:00,
2013-10-13 19:04:00,65.0,0.0,29.97,SSW,197,6.0,7.0,24,-99.99,,,-99.99,,2013-10-14 02:04:00,
2013-10-13 19:12:00,66.0,0.0,29.97,South,189,6.0,7.0,26,-99.99,,,-99.99,,2013-10-14 02:12:00,
2013-10-13 19:20:00,66.0,0.0,29.97,SSW,203,5.0,7.0,26,-99.99,,,-99.99,,2013-10-14 02:20:00,
2013-10-13 19:28:00,66.0,0.0,29.98,SSW,213,5.0,6.0,24,-99.99,,,-99.99,,2013-10-14 02:28:00,
2013-10-13 19:36:00,66.0,0.0,29.98,SW,214,5.0,6.0,23,-99.99,,,-99.99,,2013-10-14 02:36:00,
2013-10-13 19:44:00,66.0,0.0,29.98,SSW,206,3.0,6.0,26,-99.99,,,-99.99,,2013-10-14 02:44:00,
2013-10-13 19:52:00,64.0,0.0,29.98,NE,56,2.0,7.0,25,-99.99,,,-99.99,,2013-10-14 02:52:00,
2013-10-13 20:00:00,64.0,0.0,29.99,NNW,343,6.0,6.0,25,-99.99,,,-99.99,,2013-10-14 03:00:00,
2013-10-13 20:08:00,65.0,0.0,29.99,North,1,2.0,7.0,24,-99.99,,,-99.99,,2013-10-14 03:08:00,
2013-10-13 20:16:00,64.0,0.0,29.99,North,352,5.0,7.0,25,-99.99,,,-99.99,,2013-10-14 03:16:00,
2013-10-13 20:24:00,64.0,0.0,30.00,NNW,330,6.0,8.0,25,-99.99,,,-99.99,,2013-10-14 03:24:00,
2013-10-13 20:32:00,65.0,0.0,30.00,NNW,344,6.0,8.0,25,-99.99,,,-99.99,,2013-10-14 03:32:00,
2013-10-13 20:40:00,64.0,0.0,30.00,North,355,2.0,7.0,25,-99.99,,,-99.99,,2013-10-14 03:40:00,
2013-10-13 20:48:00,63.0,0.0,30.01,North,6,5.0,8.0,25,-99.99,,,-99.99,,2013-10-14 03:48:00,
2013-10-13 20:56:00,64.0,0.0,30.01,North,1,5.0,9.0,27,-99.99,,,-99.99,,2013-10-14 03:56:00,
2013-10-13 21:04:00,64.0,0.0,30.01,North,357,6.0,8.0,27,-99.99,,,-99.99,,2013-10-14 04:04:00,
2013-10-13 21:08:00,63.0,0.0,30.02,North,355,3.0,8.0,26,-99.99,,,-99.99,,2013-10-14 04:08:00,
2013-10-13 21:12:00,63.0,0.0,30.02,North,356,3.0,7.0,26,-99.99,,,-99.99,,2013-10-14 04:12:00,
2013-10-13 21:20:00,63.0,0.0,30.02,North,1,3.0,8.0,26,-99.99,,,-99.99,,2013-10-14 04:20:00,
2013-10-13 21:24:00,64.0,0.0,30.02,NNW,341,3.0,9.0,27,-99.99,,,-99.99,,2013-10-14 04:24:00,
2013-10-13 21:32:00,64.0,0.0,30.02,NNE,30,6.0,9.0,27,-99.99,,,-99.99,,2013-10-14 04:32:00,
2013-10-13 21:40:00,62.0,0.0,30.03,NE,40,2.0,8.0,28,-99.99,,,-99.99,,2013-10-14 04:40:00,
2013-10-13 21:48:00,62.0,0.0,30.03,ENE,74,5.0,6.0,27,-99.99,,,-99.99,,2013-10-14 04:48:00,
2013-10-13 21:56:00,62.0,0.0,30.04,NE,49,5.0,6.0,27,-99.99,,,-99.99,,2013-10-14 04:56:00,
2013-10-13 22:04:00,62.0,0.0,30.04,NNE,29,8.0,9.0,30,-99.99,,,-99.99,,2013-10-14 05:04:00,
2013-10-13 22:12:00,63.0,0.0,30.04,NNE,25,7.0,10.0,28,-99.99,,,-99.99,,2013-10-14 05:12:00,
2013-10-13 22:20:00,62.0,0.0,30.04,NNE,13,3.0,10.0,27,-99.99,,,-99.99,,2013-10-14 05:20:00,
2013-10-13 22:28:00,62.0,0.0,30.05,North,357,3.0,8.0,29,-99.99,,,-99.99,,2013-10-14 05:28:00,
2013-10-13 22:36:00,61.0,0.0,30.05,North,351,5.0,8.0,28,-99.99,,,-99.99,,2013-10-14 05:36:00,
2013-10-13 22:44:00,61.0,0.0,30.05,NNW,343,9.0,9.0,29,-99.99,,,-99.99,,2013-10-14 05:44:00,
2013-10-13 22:52:00,62.0,0.0,30.05,North,356,8.0,10.0,28,-99.99,,,-99.99,,2013-10-14 05:52:00,
2013-10-13 23:00:00,61.0,0.0,30.06,NNE,29,3.0,9.0,29,-99.99,,,-99.99,,2013-10-14 06:00:00,
2013-10-13 23:08:00,61.0,0.0,30.06,North,356,6.0,7.0,29,-99.99,,,-99.99,,2013-10-14 06:08:00,
2013-10-13 23:16:00,60.0,0.0,30.06,NE,44,5.0,7.0,29,-99.99,,,-99.99,,2013-10-14 06:16:00,
2013-10-13 23:24:00,60.0,0.0,30.06,NE,44,6.0,7.0,30,-99.99,,,-99.99,,2013-10-14 06:24:00,
2013-10-13 23:32:00,60.0,0.0,30.06,NNE,29,2.0,7.0,29,-99.99,,,-99.99,,2013-10-14 06:32:00,
2013-10-13 23:40:00,60.0,0.0,30.06,NE,41,5.0,6.0,30,-99.99,,,-99.99,,2013-10-14 06:40:00,
2013-10-13 23:48:00,59.0,0.0,30.06,North,3,5.0,12.0,31,-99.99,,,-99.99,,2013-10-14 06:48:00,
2013-10-13 23:56:00,59.0,0.0,30.07,NE,42,6.0,12.0,31,-99.99,,,-99.99,,2013-10-14 06:56:00,